Погода в Кандалакше

Погода в Кандалакше : погода сейчас, прогноз погоды и архив. Всё, что Вы хотите узнать о погоде в Кандалакше!

Хотите узнать прогноз погоды в Кандалакше? Тогда Вам сюда: Погода в Кандалакше

Поиск расширенной информации на нашем сайте:

Полезная информация: Сварочные технологии сварочное оборудование.

Другие новости

Новости СМИ2

Главная страница сайта

Новости сайта

03.07.2017

Напоминаем, что на нашем специализированном сайте Метеоцентр.Азия вы можете получить высокодетализированные автоматические прогнозы погоды по пунктам России, СНГ и мира в авиационном формате (включающие направление и скорость ветра, видимость, явления погоды, количество и форму облачности, нижнюю и верхнюю границу облачности).

Рекомендуем: Мы предлагаем Вам cкачать программу исправления ошибок.

Погода в Кандалакше - сегодня

Время (UTC), дата Ветер
(°,м/с) 
Видим.   Явления Облачность Т
(°С)
Тd
(°С)
f(%) Тe
(°С)
Pmin
(гПа)
dP
(гПа)
Po
(мм)
O2
(г/м3)
Тmin Tmax R s Состояние
почвы
03 20.10.17 030 (СВ) 1-1  10 км    4/1 600 м средняя, верхняя 
[Sc|Ac trans|Cs]
-4.3 -4.4 99 -4  1019.2  0.4  762  312  -4.4         
06 20.10.17 330 (СЗ) 2-5  20000 м    3/1 300 м верхняя 
[St|Cs]
-1.6 -2.4 94 -3  1019.6  0.4  762  309  -4.4         
09 20.10.17 340 (С) 2-5  20000 м    1/1 600 м 
[Sc]
+1 -2.4 78 1020.7  1.1  763  307           
12 20.10.17 320 (СЗ) 2-5  20000 м    6/3 300 м средняя, верхняя 
[Sc|Ac lent|Cc]
+2.2 -2.7 70 +2  1020.9  0.3  763  305           
15 20.10.17 220 (ЮЗ) 1-1  20000 м    3/0 средняя, верхняя 
[Ac trans|Cc]
-0.4 -2.5 86 1021.2  0.3  764  308           
18 20.10.17 030 (СВ) 1-2  10 км    ясно 
-2.7 -3.2 96 -2  1021  -0.3  763  311    +2.4       
21 20.10.17 290 (З) 2-3  10 км    9/9 600 м 
[Sc]
-2.1 -3.7 89 -3  1020  -0.9  763  310           
00 21.10.17 тихо ()   10 км    3/3 600 м 
[Sc]
-2.4 -4.2 87 -2  1018.5  -1.5  761  310           
03 21.10.17 290 (З) 1-2  10 км  в посл. час ливневой снег  9/8 300 м кучево-дожд., средняя 
[Cb cap|Ac lent]
-1.4 -3.3 87 -1  1016.7  -1.8  760  308  -3.7    0.0     
06 21.10.17 030 (СВ) 1-4  20000 м  осадки на расстоянии{ливн. осадки}  8/5 300 м кучево-дожд., средняя, верхняя 
[Cb cap|Ac As|Ci sp]
-0.2 -1.9 88 1016.2  -0.4  760  307  -3.7    0.0     
09 21.10.17 320 (СЗ) 2-4  20000 м  {ливн. осадки}  9/6 600 м средняя, верхняя 
[Sc|Ac lent|Cc]
+1.2 -1 85 +1  1016.6  0.4  760  305           
12 21.10.17 320 (СЗ) 2-3  10 км  слаб. ливневой снег  10/10 300 м кучево-дожд. 
[Cb cap]
+1.6 -0.4 87 +1  1016.1  -0.5  760  304           
15 21.10.17 330 (СЗ) 2-6  20000 м  {ливн. осадки}  8/6 600 м средняя 
[Sc|Ac trans]
+0.7 -0.8 90 1016.1  760  305      0.1     
18 21.10.17 330 (СЗ) 1-3  10 км  в посл. час ливневой снег [диам. отлож. мокр. снега 1 мм]  10/10 300 м кучево-дожд. 
[Cb cap]
+0.4 +0.3 99 +1  1015.9  0.1  760  306    +1.9  0.6     
21 21.10.17 340 (С) 1-3  10 км  {ливн. осадки}  6/4 600 м средняя 
[Sc|Ac trans]
+0.2 -0.8 93 +1  1015.8  -0.1  759  306           
00 22.10.17 330 (СЗ) 1-3  10 км  {ливн. осадки} [диам. отлож. мокр. снега 1 мм]  9/9 300 м кучево-дожд. 
[Cb cap]
-0.1 -1.3 92 +1  1015.7  -0.1  759  306           
03 22.10.17 340 (С) 1-2  10 км  [диам. отлож. мокр. снега 0 мм]  3/3 600 м 
[Sc]
-0.3 -1.6 91 1015.9  0.2  760  307  -0.9    0.6     
06 22.10.17 330 (СЗ) 1-4  20000 м  {ливн. осадки}  3/1 600 м средняя 
[Sc|Ac trans]
-0.4 -2.6 85 1016.6  0.7  760  307  -0.9    0.2  мокрый или
старый снег
50-90% 
09 22.10.17 300 (СЗ) 1-4  20000 м    8/8 600 м 
[Sc]
+1.5 -2 78 +2  1018.3  1.7  761  305           
12 22.10.17 360 (С) 4-9  10 км    8/3 600 м верхняя 
[Sc|Cc]
+2.2 -1.2 78 1019.9  1.6  762  305           
15 22.10.17 360 (С) 2-5  10 км    3/3 600 м средняя 
[Sc|Ac trans]
+1.2 -1 85 +1  1021.3  1.4  764  306      0.1     
18 22.10.17 330 (СЗ) 1-2  10 км    9/9 600 м 
[Sc]
-0.8 -1.7 94 1023.6  2.3  765  309    +2.4       
21 22.10.17 190 (Ю) 1-2  10 км    9/9 600 м 
[Sc]
-0.4 -1 96 1025  1.3  766  309           
00 23.10.17 тихо ()   10 км    10/8 600 м средняя 
[Sc|Ac und]
-0.1 -0.8 95 -0  1025.7  0.7  767  309           
03 23.10.17 340 (С) 1-2  10 км    10/8 600 м средняя 
[Sc|Ac und]
+1 +0 93 +2  1026.7  768  308  -1.2         
Время (UTC), дата Ветер
(°,м/с) 
Видим.   Явления Облачность Т
(°С)
Тd
(°С)
f(%) Тe
(°С)
Pmin
(гПа)
dP
(гПа)
Po
(мм)
O2
(г/м3)
Тmin Tmax R s Состояние
почвы

Для получения пояснительной информации подведите курсор к названию столбца.

ПОГОДА в Кандалакше - архив

Всё, что Вы хотите узнать о погоде в Кандалакше - удобно и подробно!

Выберите нужную дату (начиная с 1 января 2015* года) и нажмите кнопку "Найти".
Будут отображены архивные сводки погоды по пункту Кандалакша, начиная с указанной даты.


Отображать данные в формате CSV (для использования в таблицах Excel)


Внимание! Наш архив погоды предназначен исключительно для личного некоммерческого использования в познавательных целях. Если Вам необходимы официальные справки о состоянии погоды (для производственных, юридических, коммерческих и т.п. целей), обращайтесь в органы Росгидромета.

*Примечание: данная дата относится к архиву по метеостанциям СССР (Россия, СНГ, Балтия).
Архив по метеостанциям Зарубежной Европы и Азии (кроме Китая) хранится 10 дней, по другим регионам земного шара (Китай, Африка, Америка, Австралия, Океания) - 1 день.

Кандалакша - район местоположения метеостанции


Название, широта, долгота, высота метеостанции:
Кандалакша 67.2°ш. 32.3°д. 25 м над ур. моря [Российская Федерация]

Дополнительная информация

В oтличие oт бoльшинства пoгoдных сайтoв мы публикуем пoдрoбную метеoинфoрмацию в детальнoм прoфессиoнальнoм фoрмате.

Характеристики температуры и влажнoсти вoздуха измеряются на высoте 2 м в тени вдали oт зданий и деревьев.
Скoрoсть ветра измеряется на высoте 10 м (на урoвне рoста челoвека скoрoсть ветра ниже в 1.5-2 раза). Если метеoстанция нахoдится в гoрoде или в лесу, тo скoрoсть ветра занижена на 2-4 м/с пo сравнению с oткрытым местoм. Скoрoсть ветра над акватoриями крупных рек и oзёр, а также на вершинах хoлмoв на 2-5 м/с выше, чем в oбычных услoвиях.
Атмoсфернoе давление в разных тoчках местнoсти мoжет значительнo oтличаться oт давления на метеoстанции, в зависимoсти oт услoвий рельефа (при пoдъёме на 10 м давление пoнижается примернo на 1 мм рт.ст.).